Weather in Pavlodar

Kazakhstan     52˚17′08″N   76˚56′27″E
temp.,
°C
wind,
m/s
gust,
m/s
humid.,
%
clouds,
%
prec.,
mm/h
press.,
hPa
HPBL,
m
30 november, mon
mon3000:00−12˚n22930 0.0 104221
03:00−13˚n239523 0.0 104421
06:00−14˚n239643 0.0 104621
09:00−15˚nnw119878 0.0 104720
12:00−12˚sse019362 0.0 104983
15:00−12˚sw11948 0.0 104922
18:00−17˚wsw119917 0.0 105120
21:00−18˚sw11998 0.0 105220
1 december, tue
tue100:00−19˚sw12984 0.0 105220
03:00−19˚wsw12990 0.0 105220
06:00−20˚w12980 0.0 105320
09:00−20˚nnw11970 0.0 105320
12:00−15˚wsw11900 0.0 105358
15:00−14˚nw22930 0.0 105340
18:00−18˚nnw22930 0.0 105220
21:00−19˚nnw11940 0.0 105320
2 december, wed
wed200:00−19˚nw11940 0.0 105220
03:00−19˚nnw22950 0.0 105120
06:00−20˚n22970 0.0 105120
09:00−20˚nne11990 0.0 105020
12:00−16˚ne119321 0.0 104883
15:00−16˚ne119427 0.0 104722
18:00−19˚ne229513 0.0 104620
21:00−20˚e22920 0.0 104520
3 december, thu
thu300:00−20˚ese12930 0.0 104420
03:00−20˚ene22940 0.0 104320
06:00−20˚e23940 0.0 104320
09:00−20˚ese23940 0.0 104220
12:00−16˚e23910 0.0 1041120
15:00−16˚ene23920 0.0 104190
18:00−18˚e33920 0.0 104022
21:00−19˚e33930 0.0 103925
4 december, fri
fri400:00−19˚ene33940 0.0 103923
03:00−19˚ene34940 0.0 103834
06:00−19˚ene34930 0.0 103728
09:00−19˚ene33920 0.0 103823
12:00−15˚ene23890 0.0 1038125
15:00−14˚ne23900 0.0 103748
18:00−17˚ne33930 0.0 103820
21:00−18˚ene12990 0.0 103820